Home   Weather   Düren   Past weeks

Flag for Germany Past Weather in Düren, North Rhine-Westphalia, Germany — Yesterday and Last 2 Weeks

Now
27 °F

Passing clouds.


Feels Like: 20 °F
Forecast: 19 / 29 °F
Wind: 6 mph from North

Location: Noervenich

Current Time: Jan 17, 2017 at 12:06:04 pm

Latest Report: Jan 17, 2017 at 11:20 am


Visibility: N/A

Pressure: 30.63 "Hg

Humidity: 80%

Dew Point: 21 °F

Location of DürenLocation

Past Weather in Düren — Graph

°F

Düren Temperature Yesterday

Maximum temperature yesterday: 36 °F (at 11:20 am)
Minimum temperature yesterday: 25 °F (at 10:20 pm)
Average temperature yesterday: 32 °F

High & Low Weather Summary for the Past Weeks

 TemperatureHumidityPressure
High46 °F (Jan 11, 12:20 pm)100% (Jan 3, 5:20 am)30.74 "Hg (Jan 3, 5:20 am)
Low18 °F (Jan 6, 5:20 am)55% (Jan 6, 3:20 pm)28.94 "Hg (Jan 13, 1:20 am)
Average34 °F86%30.10 "Hg
* Reported Jan 2 10:20 am — Jan 17 10:20 am, Düren, Weather by CustomWeather, © 2017

Note: Actual official high and low records may vary slightly from our data, if they occured in-between our weather recording intervals... More about our weather records

Advertising

Düren Weather History for the Previous 24 Hours

Scroll right to see more
 ConditionsComfort  
Time TempWeatherWind HumidityBarometerVisibility
10:20 am
Tue, Jan 17
23 °FPassing clouds.2 mph86%30.60 "HgN/A
9:20 am18 °FPassing clouds.1 mph93%30.60 "HgN/A
8:20 am18 °FPassing clouds.No wind93%30.60 "HgN/A
7:20 am19 °FPassing clouds.1 mph86%30.57 "HgN/A
6:20 am23 °FPassing clouds.5 mph80%30.57 "HgN/A
5:20 am23 °FCold.3 mph86%30.54 "HgN/A
4:20 am25 °FPassing clouds.6 mph86%30.54 "HgN/A
3:48 am21 °FPassing clouds.7 mph93%30.54 "HgN/A
3:20 am21 °FPassing clouds.3 mph93%30.51 "HgN/A
2:20 am23 °FPassing clouds.1 mph93%30.51 "HgN/A
1:52 am23 °FPassing clouds.2 mph93%30.51 "HgN/A
1:20 am23 °FCold.3 mph93%30.48 "HgN/A
12:20 am23 °FCold.5 mph93%30.48 "HgN/A
11:20 pm
Mon, Jan 16
25 °FCold.5 mph86%30.48 "HgN/A
10:20 pm25 °FCold.6 mph93%30.45 "HgN/A
9:20 pm27 °FChilly.6 mph86%30.42 "HgN/A
8:31 pm27 °FChilly.2 mph86%30.42 "HgN/A
7:20 pm28 °FPassing clouds.3 mph86%30.39 "HgN/A
6:20 pm28 °FPassing clouds.2 mph86%30.36 "HgN/A
5:20 pm30 °FPassing clouds.3 mph86%30.36 "HgN/A
4:20 pm34 °FPassing clouds.5 mph75%30.33 "HgN/A
3:20 pm34 °FPassing clouds.6 mph75%30.33 "HgN/A
2:20 pm36 °FPassing clouds.6 mph70%30.30 "HgN/A
1:20 pm36 °FPartly sunny.5 mph75%30.30 "HgN/A
12:20 pm34 °FScattered clouds.5 mph81%30.30 "HgN/A
Weather by CustomWeather, © 2017

See weather overviewHow to use our weather pages